sat.trackr.live / text

‹ back to catalog

STARLINK-32419

NORAD 61637 · 2024-191S

PAYLOAD ACTIVE UNKNOWN

§ Identity

Operator
Country
US
Launch date
2024-10-23
Launch site
AFETR
Launch vehicle
Mass (kg)
RCS (m²)

Purposes: comms

External: N2YO · Heavens-Above · Gunter

§ Orbital elements

Epoch: 2026-09-20T08:08:47.081184Z

Period
94.27 min
Inclination
43.0005°
Eccentricity
0.0001070
Mean motion
15.27581040 rev/d
Perigee alt
482.3 km
Apogee alt
483.8 km
Semi-major
6,861.2 km
B*
-1.6746e-5
RAAN
135.3848°
Arg perigee
272.0035°
Mean anomaly
88.0694°
Rev number
10,730

§ Raw data

STARLINK-324191 61637U 24191S   26263.33943381 -.00000723  00000+0 -16746-4 0  99942 61637  43.0005 135.3848 0001070 272.0035  88.0694 15.27581040107305

JSON: /api/v1/satellites/61637 · /tle

For live sub-satellite position, see the globe view (requires WebGL).

§ Visibility from observer

Set your observer location to see the next 7 days of passes ≥ 10°. The values pass through the URL so the page stays shareable.

No JS? Fill the form by hand. The geolocation button needs JavaScript.